W3UGI Weather Reports


time (UTC)temp
F
wind
direction
speed
knots
gust
knots
rain 1hr
in
rain 24hr
in
rain mn
in
humidity
%
barometer
mb
20260510153333 71 198 0.0 3.5 0.00 0.07 0.00 71 1012.7
20260510151824 69 189 0.9 3.5 0.00 0.07 0.00 75 1012.8
20260510150320 68 191 0.9 3.5 0.00 0.07 0.00 78 1012.9
20260510144831 66 207 0.9 4.3 0.00 0.07 0.00 83 1013.0
20260510143342 64 184 0.9 3.5 0.00 0.07 0.00 87 1013.0
20260510141816 62 312 0.0 1.7 0.00 0.07 0.00 90 1012.9
20260510140330 61 305 0.9 2.6 0.00 0.07 0.00 87 1013.1
20260510134827 59 306 0.9 3.5 0.00 0.07 0.00 86 1012.8
20260510133339 58 310 0.0 1.7 0.00 0.07 0.00 86 1012.9
20260510131843 56 310 0.0 0.0 0.00 0.07 0.00 87 1013.0
20260510130321 55 310 0.0 0.9 0.00 0.07 0.00 87 1013.0
20260510124834 54 310 0.0 1.7 0.00 0.07 0.00 87 1013.1
20260510123349 53 310 0.0 0.9 0.00 0.07 0.00 87 1012.9
20260510121822 53 310 0.0 1.7 0.00 0.07 0.00 87 1012.6
20260510120351 53 310 0.0 2.6 0.00 0.07 0.00 87 1012.5
20260510114821 52 310 0.0 1.7 0.00 0.07 0.00 87 1012.3
20260510113331 52 310 0.0 0.0 0.00 0.07 0.00 87 1012.2
20260510111829 52 310 0.0 0.0 0.00 0.07 0.00 87 1012.1
20260510110323 51 310 0.0 0.0 0.00 0.07 0.00 87 1012.2
20260510104819 51 310 0.0 0.0 0.00 0.07 0.00 87 1012.0
20260510103314 50 310 0.0 0.0 0.00 0.07 0.00 87 1011.5
20260510101831 50 310 0.0 0.0 0.00 0.07 0.00 87 1011.6
20260510100325 50 310 0.0 0.0 0.00 0.07 0.00 87 1011.6
20260510094817 50 310 0.0 0.0 0.00 0.07 0.07 87 1011.3
20260510093316 50 310 0.0 0.0 0.00 0.07 0.07 87 1011.4
20260510091848 50 310 0.0 0.9 0.00 0.07 0.07 87 1011.3
20260510090358 50 310 0.0 1.7 0.00 0.07 0.07 87 1011.3
20260510084825 50 309 0.9 2.6 0.00 0.07 0.07 87 1011.6
20260510083318 49 309 0.0 3.5 0.00 0.07 0.07 87 1011.8
20260510081853 49 309 0.9 3.5 0.00 0.07 0.07 87 1011.4
20260510080322 49 309 0.0 0.0 0.00 0.07 0.07 87 1010.8
20260510074901 49 309 0.0 0.0 0.00 0.07 0.07 87 1010.5
20260510073322 48 309 0.0 0.0 0.00 0.07 0.07 87 1010.7
20260510071856 47 309 0.0 0.0 0.00 0.07 0.07 87 1010.7
20260510070327 47 309 0.0 0.0 0.00 0.07 0.07 88 1010.7
20260510064818 47 309 0.0 0.0 0.00 0.07 0.07 88 1010.3
20260510063335 47 309 0.0 0.0 0.00 0.07 0.07 88 1010.1
20260510061826 48 309 0.0 0.0 0.00 0.07 0.07 87 1010.1
20260510060321 48 309 0.0 0.0 0.00 0.07 0.07 87 1010.2
20260510054825 48 309 0.0 0.0 0.00 0.07 0.07 87 1010.4
20260510053320 48 309 0.0 0.0 0.00 0.07 0.07 87 1010.6
20260510051816 47 309 0.0 0.0 0.00 0.07 0.07 87 1010.6
20260510050327 47 309 0.0 0.0 0.00 0.07 0.07 88 1010.7
20260510044824 47 309 0.0 0.0 0.00 0.07 0.07 88 1010.8
20260510043333 47 309 0.0 0.0 0.00 0.07 0.07 88 1010.8
20260510041823 47 309 0.0 0.0 0.00 0.07 0.07 88 1010.8
20260510040331 48 309 0.0 0.0 0.00 0.07 0.07 88 1011.0
20260510034822 48 309 0.0 0.0 0.00 0.07 0.07 88 1010.9
20260510033336 48 309 0.0 0.0 0.00 0.07 0.07 88 1010.6
20260510031822 49 309 0.0 0.0 0.00 0.07 0.07 88 1010.6
20260510030355 49 309 0.0 0.0 0.00 0.07 0.07 88 1010.4
20260510024823 49 309 0.0 0.0 0.00 0.07 0.07 88 1010.4
20260510023337 50 309 0.0 0.0 0.00 0.07 0.07 88 1010.4
20260510021847 50 309 0.0 0.0 0.00 0.07 0.07 88 1010.2
20260510020321 50 309 0.0 0.0 0.00 0.07 0.07 88 1010.3
20260510014836 51 309 0.0 0.0 0.00 0.07 0.07 88 1010.2
20260510013359 51 309 0.0 0.0 0.00 0.07 0.07 89 1010.3
20260510011824 52 309 0.0 0.0 0.00 0.07 0.07 89 1010.1
20260510010335 52 309 0.0 0.0 0.00 0.07 0.07 89 1010.1
20260510004827 53 309 0.0 0.0 0.00 0.07 0.07 89 1009.8
20260510003324 54 309 0.0 0.0 0.00 0.07 0.07 89 1009.8
20260510001817 54 309 0.0 0.0 0.00 0.07 0.07 89 1009.7
20260510000314 55 309 0.0 0.0 0.00 0.07 0.07 89 1009.7
20260509234827 55 309 0.0 0.0 0.00 0.07 0.07 89 1009.8
20260509233322 56 309 0.0 0.0 0.00 0.07 0.07 89 1009.7
20260509231819 56 309 0.0 0.0 0.00 0.07 0.07 89 1009.7
20260509230352 57 309 0.0 0.0 0.00 0.07 0.07 89 1009.5
20260509224825 57 309 0.0 0.0 0.00 0.07 0.07 89 1009.6
20260509223317 56 309 0.0 0.0 0.00 0.07 0.07 89 1009.6
20260509221813 56 309 0.0 2.6 0.00 0.07 0.07 89 1009.5
20260509220328 56 309 0.0 1.7 0.00 0.07 0.07 89 1009.6
20260509214818 56 309 0.0 0.0 0.00 0.07 0.07 89 1009.7
20260509213355 56 309 0.0 0.0 0.04 0.07 0.07 90 1009.9
20260509211839 56 309 0.0 0.0 0.04 0.07 0.07 89 1010.0
20260509210330 56 309 0.0 0.9 0.04 0.07 0.07 89 1009.9
20260509204818 56 309 0.0 1.7 0.05 0.07 0.07 89 1010.0
20260509203330 56 309 0.0 0.9 0.02 0.03 0.03 89 1009.5
20260509201826 57 309 0.0 1.7 0.02 0.03 0.03 89 1009.8
20260509200329 57 309 0.0 1.7 0.02 0.03 0.03 89 1009.5
20260509194828 57 309 0.0 2.6 0.01 0.02 0.02 89 1010.1
20260509193320 57 309 0.0 3.5 0.00 0.01 0.01 89 1010.2
20260509191835 57 294 0.0 0.9 0.00 0.01 0.01 89 1010.5
20260509190348 57 294 0.0 1.7 0.00 0.01 0.01 89 1010.7
20260509184836 57 294 0.9 1.7 0.01 0.01 0.01 88 1010.6
20260509183335 58 294 0.0 2.6 0.01 0.01 0.01 88 1010.9
20260509181823 59 294 0.0 1.7 0.01 0.01 0.01 87 1011.0
20260509180319 59 294 0.0 2.6 0.01 0.01 0.01 85 1011.1
20260509174851 60 294 0.0 1.7 0.00 0.00 0.00 83 1011.1
20260509173359 60 294 0.0 2.6 0.00 0.00 0.00 81 1010.7
20260509171820 60 292 0.0 1.7 0.00 0.00 0.00 83 1010.8
20260509170330 60 292 0.0 0.9 0.00 0.00 0.00 83 1011.0
20260509164827 60 292 0.0 0.0 0.00 0.00 0.00 84 1010.9
20260509163341 61 292 0.0 3.5 0.00 0.00 0.00 83 1011.0
20260509161849 62 292 0.0 3.5 0.00 0.00 0.00 79 1011.1
20260509160344 63 295 1.7 7.0 0.00 0.00 0.00 72 1011.3
20260509154826 63 216 0.0 1.7 0.00 0.00 0.00 73 1011.2